FW3598 Weather Reports


time (UTC)temp
C
wind
direction
speed
KPH
gust
KPH
rain 1hr
cm
rain 24hr
cm
rain mn
cm
humidity
%
barometer
mb
20260505041123 20 113 0.0 0.0 0.00 0.00 0.00 64 1007.6
20260505040125 21 45 0.0 0.0 0.00 0.00 0.00 64 1007.5
20260505035123 21 90 0.0 0.0 0.00 0.00 0.00 64 1007.5
20260505034144 22 135 0.0 0.0 0.00 0.00 0.00 63 1007.3
20260505033123 22 135 0.0 0.0 0.00 0.00 0.00 61 1007.3
20260505032123 23 113 0.0 0.0 0.00 0.00 0.00 59 1007.2
20260505031125 23 68 0.0 0.0 0.00 0.00 0.00 56 1007.2
20260505030123 24 45 0.0 0.0 0.00 0.00 0.00 56 1007.1
20260505025125 25 90 0.0 0.0 0.00 0.00 0.00 56 1007.1
20260505024123 25 113 0.0 3.2 0.00 0.00 0.00 54 1007.1
20260505023144 26 113 0.0 0.0 0.00 0.00 0.00 49 1007.1
20260505022123 26 180 0.0 0.0 0.00 0.00 0.00 48 1007.2
20260505021123 26 180 0.0 0.0 0.00 0.00 0.00 48 1007.2
20260505020145 26 135 0.0 0.0 0.00 0.00 0.00 47 1007.3
20260505015144 27 68 0.0 0.0 0.00 0.00 0.00 46 1007.3
20260505014146 27 90 0.0 0.0 0.00 0.00 0.00 43 1007.3
20260505013123 27 180 0.0 3.2 0.00 0.00 0.00 43 1007.3
20260505012126 27 113 0.0 0.0 0.00 0.00 0.00 44 1007.3
20260505011144 27 180 0.0 0.0 0.00 0.00 0.00 44 1007.5
20260505010144 28 338 0.0 0.0 0.00 0.00 0.00 44 1007.6
20260505005123 28 180 0.0 0.0 0.00 0.00 0.00 44 1007.6
20260505004123 28 270 0.0 0.0 0.00 0.00 0.00 43 1007.5
20260505003124 28 180 0.0 3.2 0.00 0.00 0.00 43 1007.6
20260505002123 28 158 0.0 0.0 0.00 0.00 0.00 44 1007.3
20260505001124 28 180 0.0 0.0 0.00 0.00 0.00 44 1007.6
20260505000123 28 203 0.0 0.0 0.00 0.00 0.00 45 1007.7
20260504235123 29 180 0.0 0.0 0.00 0.00 0.00 45 1007.7
20260504234123 29 68 0.0 0.0 0.00 0.00 0.00 44 1007.8
20260504233123 28 270 0.0 0.0 0.00 0.00 0.00 45 1007.8
20260504232145 29 293 0.0 0.0 0.00 0.00 0.00 44 1007.8
20260504231123 28 180 0.0 0.0 0.00 0.00 0.00 44 1007.8
20260504230124 28 202 0.0 3.2 0.00 0.00 0.00 44 1008.1
20260504225144 28 203 0.0 0.0 0.00 0.00 0.00 45 1008.1
20260504224124 27 180 0.0 0.0 0.00 0.00 0.00 46 1008.2
20260504223123 27 180 0.0 0.0 0.00 0.00 0.00 47 1008.2
20260504222123 27 180 0.0 0.0 0.00 0.00 0.00 47 1008.3
20260504221124 27 113 0.0 3.2 0.00 0.00 0.00 48 1008.3
20260504220123 26 191 0.0 3.2 0.00 0.00 0.00 52 1008.3
20260504215124 27 180 0.0 0.0 0.00 0.00 0.00 49 1008.3
20260504214123 27 169 0.0 3.2 0.00 0.00 0.00 49 1008.5
20260504213123 26 174 0.0 9.7 0.00 0.00 0.00 50 1008.5
20260504212123 27 169 0.0 3.2 0.00 0.00 0.00 50 1008.7
20260504211123 27 150 0.0 3.2 0.00 0.00 0.00 49 1008.8
20260504210124 27 180 0.0 6.4 0.00 0.00 0.00 49 1008.8
20260504205123 27 192 0.0 4.8 0.00 0.00 0.00 48 1008.8
20260504204124 26 178 0.0 4.8 0.00 0.00 0.00 48 1009.0
20260504203123 27 113 0.0 0.0 0.00 0.00 0.00 47 1008.8
20260504202124 27 225 0.0 0.0 0.00 0.00 0.00 46 1009.0
20260504201123 26 187 0.0 3.2 0.00 0.00 0.00 46 1009.0
20260504200123 26 180 0.0 6.4 0.00 0.00 0.00 47 1009.1
20260504195123 26 187 0.0 3.2 0.00 0.00 0.00 47 1009.1
20260504194123 26 158 0.0 0.0 0.00 0.00 0.00 47 1009.3
20260504193124 25 180 0.0 0.0 0.00 0.00 0.00 48 1009.2
20260504192123 25 180 0.0 4.8 0.00 0.00 0.00 47 1009.3
20260504191145 26 180 0.0 0.0 0.00 0.00 0.00 48 1009.3
20260504190123 25 203 0.0 0.0 0.00 0.00 0.00 50 1009.3
20260504185123 26 158 0.0 8.0 0.00 0.00 0.00 50 1009.3
20260504184123 26 270 0.0 0.0 0.00 0.00 0.00 49 1009.5
20260504183122 25 158 0.0 0.0 0.00 0.00 0.00 50 1009.3
20260504182124 25 180 0.0 3.2 0.00 0.00 0.00 50 1009.5
20260504181144 25 158 0.0 0.0 0.00 0.00 0.00 52 1009.5
20260504180124 25 180 0.0 0.0 0.00 0.00 0.00 58 1009.5
20260504175122 24 158 0.0 0.0 0.00 0.00 0.00 59 1009.5
20260504174122 24 158 0.0 0.0 0.00 0.00 0.00 60 1009.5
20260504173144 23 45 0.0 0.0 0.00 0.00 0.00 60 1009.5
20260504172122 23 293 0.0 0.0 0.00 0.00 0.00 63 1009.5
20260504171124 22 45 0.0 0.0 0.00 0.00 0.00 65 1009.5
20260504170122 22 158 0.0 0.0 0.00 0.00 0.00 65 1009.7
20260504160124 18 113 0.0 0.0 0.00 0.00 0.00 77 1009.7
20260504151123 16 203 0.0 0.0 0.00 0.00 0.00 82 1009.6
20260504150123 16 203 0.0 0.0 0.00 0.00 0.00 83 1009.5
20260504141144 13 23 0.0 0.0 0.00 0.00 0.00 88 1009.3
20260504140123 13 23 0.0 0.0 0.00 0.00 0.00 89 1009.3
20260504130123 13 113 0.0 0.0 0.00 0.00 0.00 83 1008.8
20260504120122 15 23 0.0 0.0 0.00 0.00 0.00 75 1008.8
20260504110124 15 23 0.0 0.0 0.00 0.00 0.00 78 1008.8
20260504100122 15 360 0.0 0.0 0.00 0.00 0.00 78 1008.7
20260504090122 15 23 0.0 0.0 0.00 0.00 0.00 81 1008.7
20260504081123 15 23 0.0 0.0 0.00 0.00 0.00 77 1008.3
20260504080144 15 135 0.0 0.0 0.00 0.00 0.00 77 1008.3
20260504070122 16 23 0.0 0.0 0.00 0.00 0.00 74 1008.1
20260504060144 17 248 0.0 0.0 0.00 0.00 0.00 70 1008.0
20260504050122 20 158 0.0 0.0 0.00 0.00 0.00 59 1008.0